User: anonymous   Login
Location: Unspecified
(0.0000°N, 0.0000°E)
Time: 13:04:23
(UTC+02:00)
Language:

Cosmos 1953 Rocket - Orbit

View from above orbital plane
View from above orbital plane
View from above satellite
View from above satellite

Ground track
Ground track

The orbit data is extracted from the following two-line orbital elements,

1 19211U 88050B   17290.89239981  .00000098  00000-0  89724-5 0  9995
2 19211  82.5244  87.6609 0023357  74.3600  76.7776 14.82980752584976
Epoch (UTC): 17 October 2017 21:25:03
Eccentricity: 0.0023357
inclination: 82.5244°
perigee height: 603 km
apogee height: 636 km
right ascension of ascending node: 87.6609°
argument of perigee: 74.3600°
revolutions per day: 14.82980752
mean anomaly at epoch: 76.7776°
orbit number at epoch: 58497

The dashed part of the orbit path shows where the satellite is in the earth's shadow,  

DLR